Location: American Medical Response
(33.3472°N, 96.5511°W)
Time: 12:15:34
(UTC+00:00)

Cosmos 1805 Rocket - Pass Details

Date: 08 July 2022
Orbit: 605 x 629 km, 82.5° (Epoch: 12 August)

Event Time Altitude Azimuth Distance (km) Brightness Sun altitude
Exits shadow 10:09:23 16° 266° (W) 1,619 5.2 -13.8°
Maximum altitude 10:10:29 18° 284° (WNW) 1,550 5.3 -13.6°
Drops below altitude 10° 10:13:27 10° 327° (NNW) 1,984 6.2 -13.1°
Sets 10:16:20 0° 347° (NNW) 2,888 7.3 -12.7°
